TimeCDT,TemperatureF,Dew PointF,Humidity,Sea Level PressureIn,VisibilityMPH,Wind Direction,Wind SpeedMPH,Gust SpeedMPH,PrecipitationIn,Events,Conditions,WindDirDegrees,DateUTC
12:15 AM,14.0,3.2,62,30.09,10.0,West,5.8,-,N/A,,Clear,270,2013-03-20 05:15:00
12:35 AM,12.2,1.4,62,30.09,10.0,West,5.8,-,N/A,,Clear,260,2013-03-20 05:35:00
12:55 AM,12.2,1.4,62,30.09,10.0,West,6.9,-,N/A,,Clear,260,2013-03-20 05:55:00
1:15 AM,12.2,1.4,62,30.09,10.0,West,5.8,-,N/A,,Clear,260,2013-03-20 06:15:00
1:35 AM,12.2,1.4,62,30.10,10.0,West,6.9,-,N/A,,Clear,260,2013-03-20 06:35:00
1:55 AM,12.2,1.4,62,30.10,10.0,West,6.9,-,N/A,,Clear,270,2013-03-20 06:55:00
2:15 AM,10.4,1.4,67,30.10,10.0,West,8.1,-,N/A,,Clear,280,2013-03-20 07:15:00
2:35 AM,10.4,-0.4,62,30.10,10.0,West,10.4,16.1,N/A,,Clear,280,2013-03-20 07:35:00
2:55 AM,10.4,-2.2,57,30.10,10.0,West,6.9,-,N/A,,Clear,280,2013-03-20 07:55:00
3:15 AM,10.4,-4.0,52,30.10,10.0,WNW,6.9,-,N/A,,Clear,290,2013-03-20 08:15:00
3:35 AM,10.4,-4.0,52,30.10,10.0,West,6.9,-,N/A,,Clear,280,2013-03-20 08:35:00
3:55 AM,10.4,-4.0,52,30.10,10.0,West,10.4,-,N/A,,Clear,280,2013-03-20 08:55:00
4:15 AM,10.4,-4.0,52,30.11,10.0,West,8.1,17.3,N/A,,Clear,280,2013-03-20 09:15:00
4:35 AM,8.6,-4.0,57,30.10,10.0,West,10.4,-,N/A,,Clear,280,2013-03-20 09:35:00
4:55 AM,8.6,-4.0,57,30.10,10.0,West,8.1,-,N/A,,Clear,270,2013-03-20 09:55:00
5:15 AM,8.6,-4.0,57,30.11,10.0,West,9.2,-,N/A,,Clear,270,2013-03-20 10:15:00
5:35 AM,8.6,-4.0,57,30.11,10.0,West,6.9,-,N/A,,Clear,280,2013-03-20 10:35:00
5:55 AM,8.6,-4.0,57,30.11,10.0,West,6.9,-,N/A,,Clear,280,2013-03-20 10:55:00
6:15 AM,8.6,-4.0,57,30.11,10.0,West,9.2,-,N/A,,Clear,270,2013-03-20 11:15:00
6:35 AM,8.6,-4.0,57,30.12,10.0,West,9.2,-,N/A,,Clear,270,2013-03-20 11:35:00
6:55 AM,6.8,-4.0,61,30.12,10.0,West,9.2,-,N/A,,Clear,270,2013-03-20 11:55:00
7:15 AM,6.8,-4.0,61,30.12,10.0,West,6.9,-,N/A,,Clear,270,2013-03-20 12:15:00
7:35 AM,6.8,-4.0,61,30.12,10.0,West,5.8,-,N/A,,Clear,260,2013-03-20 12:35:00
7:55 AM,6.8,-4.0,61,30.12,10.0,West,6.9,-,N/A,,Clear,260,2013-03-20 12:55:00
8:15 AM,8.6,-4.0,57,30.12,10.0,West,9.2,-,N/A,,Clear,280,2013-03-20 13:15:00
8:35 AM,8.6,-2.2,62,30.12,10.0,West,10.4,-,N/A,,Clear,270,2013-03-20 13:35:00
8:55 AM,10.4,-2.2,57,30.12,10.0,West,9.2,-,N/A,,Clear,280,2013-03-20 13:55:00
9:15 AM,10.4,-0.4,62,30.12,10.0,WNW,10.4,17.3,N/A,,Clear,290,2013-03-20 14:15:00
9:35 AM,12.2,-0.4,57,30.11,10.0,WNW,12.7,17.3,N/A,,Clear,290,2013-03-20 14:35:00
9:55 AM,12.2,-0.4,57,30.11,10.0,West,15.0,19.6,N/A,,Clear,280,2013-03-20 14:55:00
10:15 AM,12.2,-0.4,57,30.10,10.0,West,11.5,18.4,N/A,,Clear,280,2013-03-20 15:15:00
10:35 AM,12.2,-0.4,57,30.10,10.0,West,15.0,19.6,N/A,,Clear,280,2013-03-20 15:35:00
10:55 AM,14.0,1.4,57,30.10,10.0,West,15.0,21.9,N/A,,Clear,270,2013-03-20 15:55:00
11:15 AM,14.0,1.4,57,30.10,10.0,West,17.3,25.3,N/A,,Clear,280,2013-03-20 16:15:00
11:35 AM,15.8,1.4,53,30.10,10.0,WNW,15.0,23.0,N/A,,Clear,290,2013-03-20 16:35:00
11:55 AM,17.6,1.4,49,30.10,10.0,WNW,13.8,21.9,N/A,,Clear,290,2013-03-20 16:55:00
12:15 PM,17.6,1.4,49,30.09,10.0,WNW,12.7,21.9,N/A,,Clear,290,2013-03-20 17:15:00
12:35 PM,19.4,1.4,46,30.09,10.0,WNW,13.8,19.6,N/A,,Clear,300,2013-03-20 17:35:00
12:55 PM,19.4,1.4,46,30.08,10.0,WNW,15.0,23.0,N/A,,Clear,300,2013-03-20 17:55:00
1:15 PM,17.6,1.4,49,30.08,10.0,WNW,12.7,20.7,N/A,,Scattered Clouds,290,2013-03-20 18:15:00
1:35 PM,19.4,1.4,46,30.08,10.0,WNW,10.4,20.7,N/A,,Scattered Clouds,290,2013-03-20 18:35:00
1:55 PM,21.2,3.2,46,30.07,10.0,WNW,17.3,20.7,N/A,,Scattered Clouds,300,2013-03-20 18:55:00
2:15 PM,19.4,1.4,46,30.07,10.0,West,13.8,20.7,N/A,,Scattered Clouds,280,2013-03-20 19:15:00
2:35 PM,21.2,1.4,42,30.06,10.0,NW,11.5,21.9,N/A,,Scattered Clouds,310,2013-03-20 19:35:00
2:55 PM,19.4,1.4,46,30.05,10.0,WNW,17.3,-,N/A,,Scattered Clouds,300,2013-03-20 19:55:00
3:15 PM,21.2,1.4,42,30.05,10.0,NW,10.4,19.6,N/A,,Scattered Clouds,310,2013-03-20 20:15:00
3:35 PM,23.0,3.2,43,30.06,10.0,NW,10.4,20.7,N/A,,Scattered Clouds,320,2013-03-20 20:35:00
3:55 PM,21.2,3.2,46,30.05,10.0,NW,13.8,20.7,N/A,,Scattered Clouds,310,2013-03-20 20:55:00
4:15 PM,21.2,3.2,46,30.06,10.0,NW,12.7,19.6,N/A,,Mostly Cloudy,310,2013-03-20 21:15:00
4:35 PM,21.2,3.2,46,30.06,10.0,NW,12.7,-,N/A,,Scattered Clouds,310,2013-03-20 21:35:00
4:55 PM,21.2,3.2,46,30.06,10.0,NW,11.5,24.2,N/A,,Scattered Clouds,310,2013-03-20 21:55:00
5:15 PM,21.2,3.2,46,30.06,10.0,NW,13.8,20.7,N/A,,Scattered Clouds,320,2013-03-20 22:15:00
5:35 PM,21.2,3.2,46,30.07,10.0,NW,12.7,18.4,N/A,,Mostly Cloudy,320,2013-03-20 22:35:00
5:55 PM,19.4,3.2,49,30.07,10.0,North,11.5,-,N/A,,Mostly Cloudy,350,2013-03-20 22:55:00
6:15 PM,17.6,3.2,53,30.08,10.0,NNW,9.2,-,N/A,,Scattered Clouds,330,2013-03-20 23:15:00
6:35 PM,17.6,3.2,53,30.08,10.0,NNW,10.4,-,N/A,,Scattered Clouds,330,2013-03-20 23:35:00
6:55 PM,17.6,3.2,53,30.09,10.0,NNW,6.9,-,N/A,,Scattered Clouds,330,2013-03-20 23:55:00
7:15 PM,17.6,3.2,53,30.09,10.0,NNW,6.9,-,N/A,,Scattered Clouds,330,2013-03-21 00:15:00
7:35 PM,15.8,3.2,58,30.09,10.0,NNW,5.8,-,N/A,,Clear,330,2013-03-21 00:35:00
7:55 PM,15.8,3.2,58,30.09,10.0,WNW,3.5,-,N/A,,Clear,300,2013-03-21 00:55:00
8:15 PM,12.2,1.4,62,30.09,10.0,Calm,Calm,-,N/A,,Clear,0,2013-03-21 01:15:00
8:35 PM,8.6,1.4,73,30.09,10.0,Calm,Calm,-,N/A,,Clear,0,2013-03-21 01:35:00
8:55 PM,6.8,1.4,79,30.09,10.0,Calm,Calm,-,N/A,,Clear,0,2013-03-21 01:55:00
9:15 PM,6.8,1.4,79,30.09,10.0,Calm,Calm,-,N/A,,Clear,0,2013-03-21 02:15:00
9:35 PM,5.0,-0.4,78,30.09,10.0,Calm,Calm,-,N/A,,Clear,0,2013-03-21 02:35:00
9:55 PM,3.2,-0.4,85,30.09,10.0,Calm,Calm,-,N/A,,Clear,0,2013-03-21 02:55:00
10:15 PM,3.2,-0.4,85,30.09,10.0,Calm,Calm,-,N/A,,Clear,0,2013-03-21 03:15:00
10:35 PM,1.4,-2.2,85,30.10,10.0,Calm,Calm,-,N/A,,Clear,0,2013-03-21 03:35:00
10:55 PM,1.4,-2.2,85,30.10,10.0,Calm,Calm,-,N/A,,Clear,0,2013-03-21 03:55:00
11:15 PM,-0.4,-4.0,85,30.09,10.0,Calm,Calm,-,N/A,,Clear,0,2013-03-21 04:15:00
11:35 PM,-0.4,-4.0,85,30.10,10.0,Calm,Calm,-,N/A,,Clear,0,2013-03-21 04:35:00
11:55 PM,-0.4,-4.0,85,30.10,10.0,Calm,Calm,-,N/A,,Clear,0,2013-03-21 04:55:00